Content
SEND FEEDBACK

Daily
Averages
Monthly
Summary
Bulgaria

CHUILETLEVO, BULGARIA


Home > Europe > Bulgaria
Elevation: 7520 feet     Latitude: 42 34N     Longitude: 023 16E

WEATHER
 
SELECT A DAY
Number of Records: 291,330;   Date Range: 7/1/96 - 8/31/14
 
SHARE

PRINT THIS DATA

[ ← Previous Day ]
WEATHER ALMANAC - JANUARY 31, 2013
[ Next Day → ]
[ °C ]   °F
Weather ElementAverageHighLow
Temperature39.1 °F46.4 °F (4:30 pm)32 °F (2:00 am)
Dewpoint34.4 °F42.8 °F (10:30 am)24 °F (11:00 pm)
Humidity83.6 %100 % (1:30 am)37 % (11:00 pm)
Barometer29.96 in30.09 in (11:00 pm)29.86 in (6:30 am)
Wind Speed10.1 mph24.6 mph (2:00 pm)
Wind Gust35.8 mph (4:00 pm)
Weather ElementAverage
Visibility4.9 mi
Wind DirectionSSW (190.6 °)

Weather ElementTotal
Precipitation---
Heating Degree Days25.8 (Base 65)
Averaged from 55 records on January 31, 2013
WEATHER CONDITIONS BREAKOUT
WIND DIRECTION BREAKOUT
WEATHER BY HOUR - JANUARY 31, 2013
[ °C ]   °F
Local TimeTemperatureDewpointHumidityBarometerVisibilityWind DirectionWind SpeedGust SpeedPrecipitationEventsConditions
12:30 AM39.2 °F35.6 °F87 %29.98 in6.2 miVariable2.2 mphOvercast
1:00 AM39.2 °F37.4 °F93 %29.95 in6.2 miESE (110°)2.2 mphOvercast
1:30 AM35.6 °F35.6 °F100 %29.95 in3.7 miENE (70°)4.5 mphOvercast
2:00 AM36.0 °F34.0 °F90 %30.05 in9.0 miCalmMostly Cloudy
2:00 AM32.0 °F32.0 °F100 %29.95 inESE (120°)4.5 mphOvercast
2:30 AM32.0 °F32.0 °F100 %29.95 inCalmOvercast
3:00 AM33.8 °F33.8 °F100 %29.95 in0.7 miCalmMostly Cloudy
3:30 AM33.8 °F33.8 °F100 %29.92 in1.3 miNE (40°)4.5 mphMostly Cloudy
4:00 AM33.8 °F33.8 °F100 %29.92 in1.5 miSE (130°)2.2 mphOvercast
4:30 AM33.8 °F33.8 °F100 %29.92 in1.5 miVariable4.5 mphOvercast
5:00 AM36.0 °F34.0 °F88 %30.00 in7.0 miCalmMostly Cloudy
5:00 AM33.8 °F33.8 °F100 %29.89 in1.6 miCalmOvercast
5:30 AM33.8 °F33.8 °F100 %29.89 in1.6 miVariable2.2 mphMostly Cloudy
6:00 AM33.8 °F33.8 °F100 %29.89 in1.1 miENE (70°)2.2 mphPartly Cloudy
6:30 AM35.6 °F35.6 °F100 %29.86 in1.2 miVariable2.2 mphPartly Cloudy
7:00 AM33.8 °F33.8 °F100 %29.86 in1.1 miSW (220°)4.5 mphMostly Cloudy
7:30 AM33.8 °F33.8 °F100 %29.89 in1.1 miWest (260°)4.5 mphMostly Cloudy
8:00 AM36.0 °F34.0 °F89 %29.94 in9.0 miSSW (200°)2.2 mphOvercast
8:00 AM33.8 °F33.8 °F100 %29.89 in0.7 miVariable2.2 mphMostly Cloudy
8:30 AM33.8 °F33.8 °F100 %29.89 in0.9 miNNE (30°)2.2 mphOvercast
9:00 AM33.8 °F33.8 °F100 %29.86 in0.8 miVariable4.5 mphRainLight Rain
9:30 AM35.6 °F35.6 °F100 %29.86 in1.1 miVariable2.2 mphRainLight Rain
10:00 AM37.4 °F37.4 °F100 %29.89 in1.0 miCalmRainLight Rain
10:30 AM42.8 °F42.8 °F100 %29.92 in1.3 miWest (280°)11.2 mphRainLight Rain
11:00 AM41.0 °F38.0 °F83 %29.96 in6.0 miWNW (290°)4.5 mphRainLight Rain Showers
11:00 AM44.6 °F42.8 °F93 %29.95 in5.0 miWest (280°)17.9 mphRainLight Rain
11:30 AM41.0 °F39.2 °F93 %29.95 in6.2 miWest (270°)22.4 mphRainLight Rain
12:00 PM39.2 °F37.4 °F93 %29.98 in6.2 miWest (270°)22.4 mphOvercast
12:30 PM41.0 °F39.2 °F93 %29.95 in6.2 miWest (270°)20.1 mphMostly Cloudy
1:00 PM42.8 °F39.2 °F87 %29.95 in6.2 miWest (280°)17.9 mphMostly Cloudy
1:30 PM42.8 °F39.2 °F87 %29.98 in6.2 miWest (280°)20.1 mphMostly Cloudy
2:00 PM41.0 °F33.0 °F63 %30.02 in9.0 miWNW (290°)11.2 mphPartly Cloudy
2:00 PM42.8 °F39.2 °F87 %29.98 in6.2 miWest (270°)24.6 mphMostly Cloudy
2:30 PM42.8 °F39.2 °F87 %29.98 in6.2 miWest (280°)22.4 mphMostly Cloudy
3:00 PM44.6 °F37.4 °F76 %29.98 in6.2 miWest (280°)20.1 mph31.3 mphScattered Clouds
3:30 PM44.6 °F35.6 °F71 %29.98 in6.2 miWest (280°)17.9 mph29.1 mphScattered Clouds
4:00 PM42.8 °F33.8 °F70 %29.98 in6.2 miWest (280°)22.4 mph35.8 mphPartly Cloudy
4:30 PM46.4 °F35.6 °F66 %29.98 in6.2 miWest (280°)17.9 mphPartly Cloudy
5:00 PM42.0 °F28.0 °F44 %30.01 in11.0 miWNW (290°)8.9 mphMostly Cloudy
5:00 PM44.6 °F33.8 °F66 %29.98 in6.2 miWest (280°)20.1 mphPartly Cloudy
5:30 PM46.4 °F33.8 °F62 %29.95 in6.2 miWest (280°)20.1 mphPartly Cloudy
6:00 PM46.4 °F35.6 °F66 %29.95 in6.2 miWest (280°)15.7 mphPartly Cloudy
6:30 PM42.8 °F33.8 °F70 %29.98 in6.2 miWest (280°)15.7 mphPartly Cloudy
7:00 PM42.8 °F33.8 °F70 %29.98 in6.2 miWest (270°)17.9 mphPartly Cloudy
7:30 PM41.0 °F32.0 °F70 %30.01 in6.2 miWest (260°)15.7 mphPartly Cloudy
8:00 PM40.0 °F28.0 °F51 %30.04 in11.0 miWest (270°)6.7 mphScattered Clouds
8:00 PM41.0 °F33.8 °F76 %30.01 in6.2 miWest (260°)15.7 mphPartly Cloudy
8:30 PM41.0 °F32.0 °F70 %30.01 in6.2 miWest (280°)13.4 mphPartly Cloudy
9:00 PM39.2 °F32.0 °F75 %30.04 inWest (270°)13.4 mphClear
9:30 PM39.2 °F33.8 °F81 %30.04 inWest (260°)13.4 mphClear
10:00 PM41.0 °F32.0 °F70 %30.04 inWest (280°)13.4 mphClear
10:30 PM41.0 °F30.2 °F65 %30.06 inWest (280°)11.2 mphClear
11:00 PM41.0 °F24.0 °F37 %30.09 in11.0 miWest (270°)4.5 mph
11:00 PM41.0 °F30.2 °F65 %30.04 inWest (280°)11.2 mphClear
11:30 PM37.4 °F26.6 °F65 %30.04 inWest (280°)11.2 mphClear
Hourly data recorded from LBSF, located miles away from Chuiletlevo, Bulgaria







STORIES FROM OUR PARTNERS